sat.trackr.live / text

‹ back to catalog

STARLINK-33909

NORAD 63804 · 2025-092A

PAYLOAD ACTIVE UNKNOWN

§ Identity

Operator
Country
US
Launch date
2025-05-04
Launch site
AFETR
Launch vehicle
Mass (kg)
RCS (m²)

Purposes: comms

External: N2YO · Heavens-Above · Gunter

§ Orbital elements

Epoch: 2026-09-20T02:36:55.764864Z

Period
94.27 min
Inclination
43.0019°
Eccentricity
0.0001613
Mean motion
15.27588008 rev/d
Perigee alt
481.9 km
Apogee alt
484.1 km
Semi-major
6,861.2 km
B*
5.6801e-4
RAAN
154.9949°
Arg perigee
258.6047°
Mean anomaly
101.4624°
Rev number
7,834

§ Raw data

STARLINK-339091 63804U 25092A   26263.10897876  .00015405  00000+0  56801-3 0  99912 63804  43.0019 154.9949 0001613 258.6047 101.4624 15.27588008 78348

JSON: /api/v1/satellites/63804 · /tle

For live sub-satellite position, see the globe view (requires WebGL).

§ Visibility from observer

Set your observer location to see the next 7 days of passes ≥ 10°. The values pass through the URL so the page stays shareable.

No JS? Fill the form by hand. The geolocation button needs JavaScript.